Hourly Weather Bolshie Matveevichi

Today, 1 August, Sunday

Time Temperature Precipitation Wind Pressure Humidity
00:00 +18°C° 0.1 mm 4 mps 743 mmHg 92%
01:00 +18°C° 0.1 mm 3 mps 743 mmHg 94%
02:00 +17°C° 0 mm 2 mps 743 mmHg 96%
03:00 +17°C° 0 mm 2 mps 743 mmHg 96%
04:00 +17°C° 0 mm 2 mps 743 mmHg 96%
05:00 +17°C° 0 mm 2 mps 743 mmHg 96%
06:00 +18°C° 0 mm 2 mps 743 mmHg 91%
07:00 +20°C° 0 mm 2 mps 744 mmHg 86%
08:00 +21°C° 0 mm 2 mps 744 mmHg 80%
09:00 +24°C° 0 mm 2 mps 744 mmHg 72%
10:00 +26°C° 0 mm 2 mps 744 mmHg 63%
11:00 +27°C° 0 mm 2 mps 744 mmHg 54%
12:00 +28°C° 0 mm 2 mps 744 mmHg 51%
13:00 +29°C° 0 mm 3 mps 744 mmHg 47%
14:00 +29°C° 0 mm 3 mps 744 mmHg 44%
15:00 +29°C° 0 mm 3 mps 743 mmHg 48%
16:00 +28°C° 0 mm 3 mps 742 mmHg 51%
17:00 +28°C° 0 mm 3 mps 742 mmHg 54%
18:00 +26°C° 0.6 mm 2 mps 741 mmHg 67%
19:00 +23°C° 0.6 mm 2 mps 741 mmHg 79%
20:00 +19°C° 0.6 mm 2 mps 741 mmHg 91%
21:00 +19°C° 0.5 mm 2 mps 741 mmHg 92%
22:00 +20°C° 0.5 mm 1 mps 741 mmHg 92%
23:00 +20°C° 0.5 mm 1 mps 741 mmHg 93%

Tomorrow, 2 August, Monday

Time Temperature Precipitation Wind Pressure Humidity
00:00 +20°C° 2.4 mm 1 mps 740 mmHg 94%
01:00 +20°C° 2.4 mm 1 mps 740 mmHg 96%
02:00 +19°C° 2.4 mm 1 mps 739 mmHg 97%
03:00 +19°C° 0.3 mm 1 mps 739 mmHg 97%
04:00 +19°C° 0.3 mm 1 mps 738 mmHg 98%
05:00 +18°C° 0.3 mm 2 mps 738 mmHg 98%
06:00 +19°C° 0 mm 2 mps 738 mmHg 95%
07:00 +19°C° 0 mm 3 mps 738 mmHg 93%
08:00 +20°C° 0 mm 4 mps 739 mmHg 90%
09:00 +19°C° 0.1 mm 5 mps 739 mmHg 89%
10:00 +19°C° 0.1 mm 5 mps 740 mmHg 88%
11:00 +19°C° 0.1 mm 6 mps 741 mmHg 87%
12:00 +17°C° 0.1 mm 6 mps 741 mmHg 88%
13:00 +17°C° 0.1 mm 6 mps 742 mmHg 88%
14:00 +16°C° 0.1 mm 6 mps 742 mmHg 88%
15:00 +16°C° 0 mm 5 mps 743 mmHg 89%
16:00 +16°C° 0 mm 5 mps 743 mmHg 89%
17:00 +17°C° 0 mm 4 mps 744 mmHg 90%
18:00 +17°C° 0 mm 4 mps 744 mmHg 90%
19:00 +17°C° 0 mm 3 mps 744 mmHg 90%
20:00 +17°C° 0 mm 3 mps 744 mmHg 90%
21:00 +16°C° 0 mm 3 mps 744 mmHg 91%
22:00 +14°C° 0 mm 3 mps 745 mmHg 93%
23:00 +14°C° 0 mm 3 mps 745 mmHg 95%

Day after tomorrow, 3 August, Tuesday

Time Temperature Precipitation Wind Pressure Humidity
00:00 +14°C° 0 mm 3 mps 745 mmHg 94%
01:00 +14°C° 0 mm 3 mps 745 mmHg 94%
02:00 +14°C° 0 mm 3 mps 746 mmHg 93%
03:00 +13°C° 0 mm 3 mps 746 mmHg 93%
04:00 +12°C° 0 mm 3 mps 746 mmHg 94%
05:00 +12°C° 0 mm 3 mps 746 mmHg 94%
06:00 +13°C° 0 mm 4 mps 746 mmHg 87%
07:00 +15°C° 0 mm 4 mps 747 mmHg 79%
08:00 +17°C° 0 mm 4 mps 747 mmHg 72%
09:00 +19°C° 0 mm 5 mps 747 mmHg 65%
10:00 +20°C° 0 mm 5 mps 747 mmHg 58%
11:00 +21°C° 0 mm 5 mps 748 mmHg 51%
12:00 +22°C° 0 mm 5 mps 748 mmHg 50%
13:00 +22°C° 0 mm 5 mps 747 mmHg 48%
14:00 +22°C° 0 mm 5 mps 747 mmHg 47%
15:00 +22°C° 0 mm 5 mps 747 mmHg 49%
16:00 +22°C° 0 mm 5 mps 747 mmHg 52%
17:00 +21°C° 0 mm 4 mps 748 mmHg 54%
18:00 +20°C° 0 mm 4 mps 748 mmHg 59%
19:00 +19°C° 0 mm 3 mps 748 mmHg 65%
20:00 +17°C° 0 mm 2 mps 748 mmHg 70%
21:00 +17°C° 0 mm 2 mps 748 mmHg 72%
22:00 +16°C° 0 mm 2 mps 748 mmHg 75%
23:00 +15°C° 0 mm 1 mps 749 mmHg 77%

4 August, Wednesday

Time Temperature Precipitation Wind Pressure Humidity
00:00 +15°C° 0 mm 1 mps 749 mmHg 76%
01:00 +15°C° 0 mm 1 mps 749 mmHg 75%
02:00 +15°C° 0 mm 1 mps 749 mmHg 74%
03:00 +14°C° 0 mm 1 mps 749 mmHg 75%
04:00 +14°C° 0 mm 2 mps 749 mmHg 75%
05:00 +14°C° 0 mm 2 mps 749 mmHg 75%
06:00 +16°C° 0 mm 2 mps 749 mmHg 70%
07:00 +17°C° 0 mm 2 mps 749 mmHg 66%
08:00 +19°C° 0 mm 2 mps 749 mmHg 61%
09:00 +21°C° 0 mm 2 mps 749 mmHg 57%
10:00 +22°C° 0 mm 3 mps 749 mmHg 53%
11:00 +24°C° 0 mm 3 mps 749 mmHg 48%
12:00 +24°C° 0.2 mm 3 mps 749 mmHg 51%
13:00 +24°C° 0.2 mm 3 mps 749 mmHg 54%
14:00 +23°C° 0.2 mm 4 mps 749 mmHg 57%
15:00 +21°C° 0.6 mm 3 mps 748 mmHg 68%
16:00 +19°C° 0.6 mm 2 mps 748 mmHg 79%
17:00 +18°C° 0.6 mm 2 mps 748 mmHg 90%
18:00 +17°C° 0.1 mm 2 mps 748 mmHg 91%
19:00 +17°C° 0.1 mm 2 mps 748 mmHg 92%
20:00 +17°C° 0.1 mm 2 mps 748 mmHg 92%
21:00 +17°C° 0.1 mm 2 mps 748 mmHg 93%
22:00 +17°C° 0.1 mm 2 mps 748 mmHg 94%
23:00 +16°C° 0.1 mm 2 mps 748 mmHg 94%

5 August, Thursday

Time Temperature Precipitation Wind Pressure Humidity
00:00 +16°C° 0 mm 2 mps 748 mmHg 95%
01:00 +16°C° 0 mm 1 mps 747 mmHg 96%
02:00 +15°C° 0 mm 1 mps 747 mmHg 96%
03:00 +15°C° 0 mm 1 mps 747 mmHg 97%
04:00 +15°C° 0 mm 1 mps 747 mmHg 97%
05:00 +14°C° 0 mm 1 mps 747 mmHg 97%
06:00 +15°C° 0 mm 0 mps 747 mmHg 94%
07:00 +16°C° 0 mm 0 mps 747 mmHg 91%
08:00 +17°C° 0 mm 0 mps 747 mmHg 87%
09:00 +18°C° 0 mm 0 mps 747 mmHg 81%
10:00 +20°C° 0 mm 0 mps 747 mmHg 75%
11:00 +23°C° 0 mm 1 mps 747 mmHg 68%
12:00 +24°C° 0.1 mm 1 mps 746 mmHg 65%
13:00 +24°C° 0.1 mm 1 mps 746 mmHg 62%
14:00 +25°C° 0.1 mm 1 mps 746 mmHg 59%
15:00 +24°C° 0.1 mm 1 mps 746 mmHg 63%
16:00 +24°C° 0.1 mm 1 mps 746 mmHg 67%
17:00 +23°C° 0.1 mm 2 mps 745 mmHg 71%
18:00 +21°C° 0.2 mm 2 mps 745 mmHg 76%
19:00 +20°C° 0.2 mm 2 mps 745 mmHg 82%
20:00 +18°C° 0.2 mm 2 mps 744 mmHg 88%
21:00 +18°C° 0 mm 2 mps 744 mmHg 90%
22:00 +17°C° 0 mm 2 mps 744 mmHg 92%
23:00 +17°C° 0 mm 2 mps 744 mmHg 94%

6 August, Friday

Time Temperature Precipitation Wind Pressure Humidity
00:00 +17°C° 0.9 mm 2 mps 744 mmHg 95%
01:00 +17°C° 0.9 mm 2 mps 743 mmHg 96%
02:00 +17°C° 0.9 mm 2 mps 743 mmHg 97%
03:00 +17°C° 1.8 mm 2 mps 743 mmHg 98%
04:00 +17°C° 1.8 mm 2 mps 742 mmHg 98%
05:00 +18°C° 1.8 mm 1 mps 742 mmHg 98%
06:00 +17°C° 0.7 mm 2 mps 742 mmHg 97%
07:00 +18°C° 0.7 mm 2 mps 741 mmHg 96%
08:00 +18°C° 0.7 mm 2 mps 741 mmHg 95%
09:00 +18°C° 0.2 mm 2 mps 741 mmHg 93%
10:00 +19°C° 0.2 mm 2 mps 742 mmHg 92%
11:00 +20°C° 0.2 mm 1 mps 742 mmHg 90%
12:00 +19°C° 0.5 mm 2 mps 742 mmHg 91%
13:00 +19°C° 0.5 mm 2 mps 742 mmHg 92%
14:00 +19°C° 0.5 mm 2 mps 742 mmHg 92%
15:00 +19°C° 0.1 mm 2 mps 742 mmHg 91%
16:00 +19°C° 0.1 mm 2 mps 742 mmHg 90%
17:00 +20°C° 0.1 mm 2 mps 742 mmHg 89%
18:00 +19°C° 0 mm 2 mps 742 mmHg 91%
19:00 +18°C° 0 mm 2 mps 742 mmHg 93%
20:00 +19°C° 0 mm 1 mps 741 mmHg 95%
21:00 +17°C° 0 mm 2 mps 742 mmHg 95%
22:00 +17°C° 0 mm 2 mps 742 mmHg 96%
23:00 +17°C° 0 mm 2 mps 742 mmHg 96%
Show more

We Need Your Consent

Meteoprog and our Service Providers may store and access personal data such as cookies, device identifiers or other similar technologies on your device and process such data to personalise content and ads, as well as provide social media features and to analyse the traffic.

  • Store and/or access information on your device

    Cookies, device identifiers or other information can be stored or accessed on your device for the purposes indicated above.

  • Personalised ads and content, ad and content measurement, audience insights, and products development

    Ads and content can be personalised based on a profile. More data can be added to better personalise ads and content. Ad and content performance can be measured. Insights about the audience who saw the ads and content can be derived. Such data can be used to develop or improve user’s experience, systems and software.

By clicking ‘I Agree’ you will allow the use of indicated cookies, device identifiers, web beacons or other similar technologies. Your settings can be changed in the browser on your device.

For certain purposes, legitimate interests may be relied on, rather than consent. You can read more about this in our Privacy and Cookie Policy.